Jaipur, India

11:02 PM IST on July 29, 2016 (GMT +0530)
Jaipur

Weather History for VIJP - November, 2011

Change the Weather History Date:

Monday, November 14, 2011

  Actual Average Record
Temperature  
Mean Temperature 74 °F -  
Max Temperature 88 °F - - ()
Min Temperature 60 °F - - ()
Cooling Degree Days 9    
Growing Degree Days 24 (Base 50)    
Moisture  
Dew Point 45 °F    
Average Humidity 36    
Maximum Humidity 56    
Minimum Humidity 11    
Precipitation  
Precipitation 0.00 in - - ()
Sea Level Pressure  
Sea Level Pressure 29.98 in    
Wind  
Wind Speed 1 mph ()    
Max Wind Speed 8 mph    
Max Gust Speed 21 mph    
Visibility 2.1 miles    
Events      
T = Trace of Precipitation, MM = Missing Value Source: Averaged Metar Reports

Daily Weather History Graph

Daily Weather History Graph

Search for Another Location

Airport or City:

Trip Planner

Search our weather history database for the weather conditions in past years. The results will help you decide how hot, cold, wet, or windy it might be!

Date:

Astronomy

Nov. 14, 2011 Rise Set
Actual Time 6:45 AM IST 5:36 PM IST
Civil Twilight 6:20 AM IST 6:01 PM IST
Nautical Twilight 5:52 AM IST 6:29 PM IST
Astronomical Twilight 5:25 AM IST 6:56 PM IST
Moon 8:24 PM IST (11/14) 9:34 AM IST (11/14)
Length of Visible Light 11h 40m
Length of Day
10h 51m
Waning Gibbous, 89% of the Moon is Illuminated
Nov 14
Waning Gibbous
Nov 18
Last Quarter
Nov 25
New
Dec 2
First Quarter
Dec 10
Full

Hourly Weather History & Observations

Time (IST) Temp. Dew Point Humidity Pressure Visibility Wind Dir Wind Speed Gust Speed Precip Events Conditions
12:00 AM 68.0 °F 48.2 °F 49% 29.98 in 1.6 mi Calm Calm - N/A   Smoke
1:00 AM 66.2 °F 48.2 °F 52% 29.98 in 1.6 mi Calm Calm - N/A   Smoke
2:00 AM 62.6 °F 46.4 °F 55% 29.98 in 1.6 mi Calm Calm - N/A   Smoke
2:30 AM 63 °F 46 °F 43% 29.94 in 1 mi Calm Calm - -   Smoke
3:00 AM 66.2 °F 44.6 °F 46% 29.98 in 1.6 mi Calm Calm - N/A   Smoke
4:00 AM 62.6 °F 44.6 °F 52% 29.98 in 1.6 mi Calm Calm - N/A   Smoke
5:00 AM 62.6 °F 46.4 °F 55% 29.98 in 1.6 mi Calm Calm - N/A   Smoke
5:30 AM 62 °F 46 °F 45% 29.94 in 1 mi Calm Calm - -   Smoke
6:00 AM 66.2 °F 46.4 °F 49% 29.98 in 1.6 mi ENE 4.6 mph - N/A   Smoke
7:00 AM 64.4 °F 48.2 °F 56% 30.01 in 1.6 mi Calm Calm - N/A   Smoke
8:00 AM 69.8 °F 51.8 °F 53% 30.01 in 1.6 mi Calm Calm - N/A   Haze
8:30 AM 71 °F 52 °F 40% 29.96 in 1 mi Calm Calm - -   Haze
9:00 AM 75.2 °F 50.0 °F 41% 30.04 in 2.5 mi Calm Calm - N/A   Haze
10:00 AM 77.0 °F 50.0 °F 39% 30.04 in 3.1 mi Calm Calm - N/A   Haze
11:00 AM 80.6 °F 50.0 °F 34% 30.04 in 3.1 mi Variable 2.3 mph - N/A   Haze
11:30 AM 84 °F 52 °F 22% 29.95 in 2 mi WSW 4.6 mph - -   Haze
1:00 PM 86.0 °F 46.4 °F 25% 30.01 in 3.7 mi West 8.1 mph 20.7 mph N/A   Scattered Clouds
2:00 PM 86.0 °F 44.6 °F 23% 29.98 in 3.7 mi NW 6.9 mph - N/A   Scattered Clouds
2:30 PM 87 °F 43 °F 13% 29.88 in 2 mi WNW 8.1 mph - -   Partly Cloudy
3:00 PM 87.8 °F 41.0 °F 19% 29.95 in 3.7 mi West 8.1 mph - N/A   Scattered Clouds
4:00 PM 87.8 °F 39.2 °F 18% 29.95 in 3.7 mi WNW 5.8 mph - N/A   Scattered Clouds
5:00 PM 84.2 °F 35.6 °F 18% 29.95 in 3.7 mi Variable 2.3 mph - N/A   Scattered Clouds
5:30 PM 83 °F 37 °F 11% 29.90 in 2 mi Calm Calm - -   Partly Cloudy
6:00 PM 77.0 °F 42.8 °F 29% 29.98 in 3.1 mi Calm Calm - N/A   Haze
7:00 PM 75.2 °F 41.0 °F 29% 30.01 in 1.2 mi Calm Calm - N/A   Haze
8:00 PM 75.2 °F 39.2 °F 27% 30.01 in 1.2 mi Calm Calm - N/A   Smoke
9:00 PM 73.4 °F 41.0 °F 31% 30.04 in 1.2 mi Calm Calm - N/A   Smoke
10:00 PM 69.8 °F 42.8 °F 38% 30.04 in 1.2 mi Calm Calm - N/A   Smoke
11:30 PM 68 °F 44 °F 30% 30.00 in 1 mi Calm Calm - -   Smoke